Regional Weather Roundup
Issued by NWS Upton, NY

Current Version | Previous Version | Text Only | Print | Product List | Glossary On
Versions: 1 2 3 4 5 6 7 8 9 10 11 12 13 14 15 16 17 18 19 20 21 22 23 24 25 26 27 28 29 30 31 32 33 34 35 36 37 38 39 40 41 42 43 44 45 46 47 48 49 50
000
ASUS41 KOKX 112304
RWROKX

REGIONAL WEATHER ROUNDUP
NATIONAL WEATHER SERVICE NEW YORK NY
600 PM EST THU FEB 11 2016

NOTE: "FAIR" INDICATES FEW OR NO CLOUDS BELOW 12,000 FEET WITH NO
SIGNIFICANT WEATHER AND/OR OBSTRUCTIONS TO VISIBILITY.

NYZ071-072-176-178-NJZ106-104-120000-
NEW YORK CITY METRO AREA


CITY           SKY/WX    TMP DP  RH WIND       PRES   REMARKS
CENTRAL PARK   PTCLDY    23  -4  30 W8G23     30.04R WCI  14
LAGUARDIA APRT MOCLDY    24   1  36 W24G39    30.03R WCI   8
KENNEDY INTL   PTCLDY    24  -4  29 NW21G35   30.04R WCI   9
NEWARK/LIBERTY PTCLDY    23   0  36 W20G25    30.05R WCI   8
BRNX BOT. GARD   N/A     23  -2  33 W7        30.05R WCI  15
TETERBORO      CLEAR     23  -5  29 W15G24    30.04R WCI  10
$$

NYZ177-179-078>081-120000-
LONG ISLAND NEW YORK

CITY           SKY/WX    TMP DP  RH WIND       PRES   REMARKS
FARMINGDALE    PTCLDY    23  -2  33 NW15G29   30.00R WCI  10
ISLIP          MOCLDY    22  -1  36 NW21G29   29.98R WCI   6
SHIRLEY        MOCLDY    22   0  38 NW20G33   29.99R WCI   7
RIVERHEAD        N/A     23  -9  23 NW16      29.95R WCI  10
WESTHAMPTON    MOCLDY    21   0  39 W14G24    29.97R WCI   8
EAST HAMPTON   MOCLDY    22  -1  36 NW17G29   29.92R WCI   8
MONTAUK POINT    N/A     23   2  40 W16G33    29.93R WCI  10
$$

NYZ052-065-067-120000-
HUDSON VALLEY

CITY           SKY/WX    TMP DP  RH WIND       PRES   REMARKS
WHITE PLAINS   MOCLDY    20  -3  36 NW35G44   29.98R WCI   0
NEWBURGH       NOT AVBL
MONTGOMERY     CLEAR     17   0  47 NW21G29   30.01R WCI   0
POUGHKEEPSIE   PTCLDY    19  -3  38 W17G30    30.02R WCI   4
ALBANY         FLURRIES  13  -1  54 NW16G29   30.00R WCI  -3
$$

NJZ001-105-106-008-010-013-015-019>022-104-120000-
NEW JERSEY

CITY           SKY/WX    TMP DP  RH WIND       PRES   REMARKS
NEWARK/LIBERTY PTCLDY    23   0  36 W20G25    30.05R WCI   8
TETERBORO      CLEAR     23  -5  29 W15G24    30.04R WCI  10
CALDWELL       MOCLDY    22  -5  30 NW14G24   30.05R WCI   9
MORRISTOWN     PTCLDY    21   0  39 NW15G24   30.05R WCI   8
SOMERVILLE     CLOUDY    23   1  38 W9G21     30.05R WCI  13
SUSSEX         PTCLDY    19  -1  41 W14G22    30.02R WCI   6
ANDOVER          N/A     18  -4  37 NW8G22    30.02R WCI   8
TRENTON        PTCLDY    22   5  48 W17G26    30.08R WCI   8
MILLVILLE      PTCLDY    23   1  38 W17G25    30.15R WCI   9
ATLANTIC CITY  PTCLDY    23   0  36 W17G25    30.12R WCI   9
WRIGHTSTOWN    PTCLDY    22   2  42 NW20G26   30.07R WCI   8
TOMS RIVER     MOCLDY    23   0  36 W20G25    30.09R WCI   8
BELMAR         PTCLDY    23   1  39 W13G18    30.05R WCI  11
$$

PAZ047>061-062-071-120000-
EASTERN PENNSYLVANIA

CITY           SKY/WX    TMP DP  RH WIND       PRES   REMARKS
PHILADELPHIA   PTCLDY    25  -1  32 W20G28    30.14R WCI  11
ALLENTOWN      CLEAR     20   6  55 W9G22     30.07R WCI   9
SCRANTON       PTCLDY    16  -3  43 W15G24    30.04R WCI   1
$$

CTZ002-004>006-009-010-012-RIZ004-006-007-MAZ004-011-015-120000-
SOUTHERN NEW ENGLAND
 IN CT

CITY           SKY/WX    TMP DP  RH WIND       PRES   REMARKS
BRADLEY INTL   PTCLDY    14   2  58 NW14      29.94R WCI  -1
HARTFORD       MOCLDY    18   1  47 W13G23    29.98R WCI   5
DANBURY        PTCLDY    17  -7  34 W10G29    29.98R WCI   5
WTRBRY/OXFORD  MOCLDY    16  -9  32 NW14G33   29.93R WCI   1
BRIDGEPORT     PTCLDY    21  -1  38 W18G31    29.99R WCI   6
MERIDEN        MOCLDY    20  -5  33 NW18G30   29.97R WCI   5
NEW HAVEN      PTCLDY    22   1  40 NW15G30   29.98R WCI   9
CHESTER        FAIR      21  -2  35 NW12G32   29.93R WCI   9
GROTON         CLOUDY    20   4  50 NW18G31   29.93R WCI   5
WILLIMANTIC    PTCLDY    17   3  54 NW12G20   29.93R WCI   4

 IN RI

CITY           SKY/WX    TMP DP  RH WIND       PRES   REMARKS
PROVIDENCE     PTCLDY    19   2  47 W17G25    29.89R WCI   4
BLOCK ISLAND   CLOUDY    23   3  42 NW18G29   29.88R WCI   9
WESTERLY       PTCLDY    20   5  52 NW10G21   29.92R WCI   9

 IN MA

CITY           SKY/WX    TMP DP  RH WIND       PRES   REMARKS
BOSTON         PTCLDY    19  -3  38 W22G33    29.85R WCI   2
WORCESTER      MOCLDY    11  -5  48 W23G37    29.81R WCI  -9
WESTFIELD      CLOUDY    14  -3  47 NW16G30   29.94R WCI  -2
PROVINCETOWN   PTCLDY    23   9  55 W24G36    29.80R WCI   7
NANTUCKET      PTCLDY    24   8  50 NW22G33   29.83R WCI   9
$$

ANZ330-335-338-340-345-350-353-355-120000-
COASTAL MARINE OBSERVATIONS


STATION/POSITION TIME  SKY/WX   TEMP    WIND        PRES    VSBY  WAVE
                                AIR SEA DIR/SP/G                  HT/PER
                 (UTC)          (F)     (DEG/KT/KT) (MB)    (MI)  (FT/S)
NY HARB ENTRANCE 2150            26 42  290/ 27/ 35 1015.0          5/ 5
4S FIRE IS       NOT AVBL
20S FIRE ISLAND  2150            27 44  300/ 31/ 39 1013.7          8/ 7
GREAT SOUTH BAY  NOT AVBL
23SW MTP         2250            26 45  290/ 31/ 37 1012.7          8/ 7
HUDSON CANYON    2150            29 48              1014.1         12/ 7
KINGS POINT      2200            24 37              1015.2
EXECUTION ROCKS  NOT AVBL
CENTRAL LI SOUND 2200            25     280/ 27/ 35   N/A           5/ 5
EASTERN LI SOUND 2200            26 41  290/ 23/ 31   N/A
ROBBINS REEF     2200            24                 1015.2
$$


>>>>>>>>>>>>>>>>>>>>>>>>>>>> KEY <<<<<<<<<<<<<<<<<<<<<<<<<<<
>                                                          <
>     SKY/WX - SKY CONDITION/PRESENT WEATHER               <
>     TMP    - TEMPERATURE IN FAHRENHEIT                   <
>     DP     - DEWPOINT IN FAHRENHEIT                      <
>     RH     - RELATIVE HUMIDITY IN PERCENT                <
>     WIND   - DIRECTION AND SPEED IN MPH                  <
>     PRES   - MEAN SEA LEVEL PRESSURE IN INCHES OF HG     <
>     WCI    - WIND CHILL INDEX                            <
>     VSB    - VISIBILITY IN MILES                         <
>     HX     - HEAT INDEX                                  <
>     TC     - TEMPERATURE IN CELSIUS                      <
>     VRB    - VARIABLE WIND DIRECTION                     <
>                                                          <
>>>>>>>>>>>>>>>>>>>>>>>>>>>> KEY <<<<<<<<<<<<<<<<<<<<<<<<<<<





USA.gov is the U.S. government's official web portal to all federal, state and local government web resources and services.